Regional Weather Roundup
Issued by NWS

Home | Current Version | Previous Version | Text Only | Print | Product List | Glossary On
Versions: 1 2 3 4 5 6 7 8 9 10 11 12 13 14 15 16 17 18 19 20 21 22 23 24 25 26 27 28 29 30 31 32 33 34 35 36 37 38 39 40 41 42 43 44 45 46 47 48 49 50
000
ASPQ40 PGUM 221812
RWRPQ
WEATHER ROUNDUP FOR THE MARIANAS AND MICRONESIA
NATIONAL WEATHER SERVICE TIYAN GU
400 AM CHST TUE DEC 23 2014

GUZ001>004-221900-
MARIANA ISLANDS-

CITY           SKY/WX    TMP DP  RH WIND       PRES   REMARKS
GUAM AIRPORT   PTCLDY    81  75  83 E10       29.88S
ANDERSEN AFB   NOT AVBL
ROTA AIRPORT   NOT AVBL
TINIAN AP      NOT AVBL
SAIPAN AP      MOCLDY    81  73  78 E22       29.90S

$$

PMZ161-221900-
REPUBLIC OF PALAU-

CITY           SKY/WX    TMP DP  RH WIND       PRES   REMARKS
KOROR AP       MOCLDY    82  77  83 NE9G20    29.78F HX  91
KOROR WSO      MOCLDY    82  77  83 NE6       29.76F HX  91

$$

PMZ171>174-221900-
FEDERATED STATES OF MICRONESIA-

CITY           SKY/WX    TMP DP  RH WIND       PRES   REMARKS
YAP AIRPORT    MOCLDY    81  77  89 VRB5      29.78F
CHUUK AP       CLOUDY    82  77  83 NE8       29.75R HX  91
POHNPEI AP     NOT AVBL
POHNPEI WSO    LGT RAIN  79  77  94 NE8       29.73S
KOSRAE AP      NOT AVBL

$$

PMZ181-221900-
REPUBLIC OF THE MARSHALL ISLANDS-

CITY           SKY/WX    TMP DP  RH WIND       PRES   REMARKS
KWAJALEIN AP   PTCLDY    82  73  74 NE29G36   29.75R
MAJURO AP      NOT AVBL
MAJURO WSO     CLOUDY    82  73  74 E14G29    29.74R

$$



USA.gov is the U.S. government's official web portal to all federal, state and local government web resources and services.